Wetterdaten: Woche 26.12.05 - 01.01.06 (KW52)
Datum Zeit Temperatur Luftfeuchte Luftdruck Niederschlag Windrichtung Wind
26.12.2005 00:00 -0,3 C 100 % 1016 hPa 0,0 l/m N 0,0 km/h (0 Bft)
26.12.2005 01:00 -0,2 C 100 % 1016 hPa 0,0 l/m N 0,0 km/h (0 Bft)
26.12.2005 02:00 -0,2 C 100 % 1015 hPa 0,0 l/m N 0,0 km/h (0 Bft)
26.12.2005 03:00 -0,4 C 100 % 1015 hPa 0,0 l/m N 0,0 km/h (0 Bft)
26.12.2005 04:00 -0,6 C 100 % 1014 hPa 0,0 l/m N 0,0 km/h (0 Bft)
26.12.2005 05:00 -0,8 C 100 % 1014 hPa 0,0 l/m N 0,0 km/h (0 Bft)
26.12.2005 06:00 -0,9 C 100 % 1013 hPa 0,0 l/m N 0,0 km/h (0 Bft)
26.12.2005 07:00 -1,0 C 100 % 1013 hPa 0,0 l/m N 0,0 km/h (0 Bft)
26.12.2005 08:00 -1,1 C 100 % 1012 hPa 0,0 l/m N 0,0 km/h (0 Bft)
26.12.2005 09:00 -1,0 C 100 % 1012 hPa 0,0 l/m N 0,0 km/h (0 Bft)
26.12.2005 10:00 -0,2 C 100 % 1012 hPa 0,0 l/m N 0,0 km/h (0 Bft)
26.12.2005 11:00 0,3 C 100 % 1011 hPa 0,0 l/m N 0,0 km/h (0 Bft)
26.12.2005 12:00 0,5 C 100 % 1011 hPa 0,0 l/m N 0,0 km/h (0 Bft)
26.12.2005 13:00 0,5 C 89 % 1010 hPa 0,0 l/m S-SO 4,6 km/h (1 Bft)
26.12.2005 14:00 0,6 C 83 % 1009 hPa 0,0 l/m SO 7,2 km/h (2 Bft)
26.12.2005 15:00 0,2 C 80 % 1009 hPa 0,0 l/m S-SO 2,7 km/h (1 Bft)
26.12.2005 16:00 -0,6 C 79 % 1009 hPa 0,0 l/m N 0,0 km/h (0 Bft)
26.12.2005 17:00 -1,1 C 82 % 1008 hPa 0,0 l/m N 0,0 km/h (0 Bft)
26.12.2005 18:00 -1,3 C 84 % 1008 hPa 0,0 l/m N 0,0 km/h (0 Bft)
26.12.2005 19:00 -1,4 C 83 % 1008 hPa 0,0 l/m N 0,0 km/h (0 Bft)
26.12.2005 20:00 -1,8 C 83 % 1007 hPa 0,0 l/m N 0,0 km/h (0 Bft)
26.12.2005 21:00 -2,0 C 85 % 1007 hPa 0,0 l/m N 0,0 km/h (0 Bft)
26.12.2005 22:00 -2,5 C 88 % 1007 hPa 0,0 l/m N 0,0 km/h (0 Bft)
26.12.2005 23:00 -3,2 C 90 % 1007 hPa 0,0 l/m N 0,0 km/h (0 Bft)
27.12.2005 00:00 -4,6 C 92 % 1006 hPa 0,0 l/m N 0,0 km/h (0 Bft)
27.12.2005 01:00 -4,5 C 94 % 1006 hPa 0,0 l/m N 0,0 km/h (0 Bft)
27.12.2005 02:00 -3,7 C 95 % 1006 hPa 0,0 l/m N 0,0 km/h (0 Bft)
27.12.2005 03:00 -4,1 C 96 % 1005 hPa 0,0 l/m N 0,0 km/h (0 Bft)
27.12.2005 04:00 -4,1 C 97 % 1005 hPa 0,0 l/m N 0,0 km/h (0 Bft)
27.12.2005 05:00 -3,9 C 98 % 1004 hPa 0,0 l/m N 0,0 km/h (0 Bft)
27.12.2005 06:00 -3,9 C 98 % 1004 hPa 0,0 l/m N 0,0 km/h (0 Bft)
27.12.2005 07:00 -4,1 C 99 % 1004 hPa 0,0 l/m N 0,0 km/h (0 Bft)
27.12.2005 08:00 -4,2 C 100 % 1004 hPa 0,0 l/m N 0,0 km/h (0 Bft)
27.12.2005 09:00 -4,0 C 100 % 1004 hPa 0,0 l/m N 0,0 km/h (0 Bft)
27.12.2005 10:00 -3,5 C 100 % 1004 hPa 0,0 l/m N 0,0 km/h (0 Bft)
27.12.2005 11:00 -2,9 C 100 % 1004 hPa 0,0 l/m N 0,0 km/h (0 Bft)
27.12.2005 12:00 -2,2 C 99 % 1003 hPa 0,0 l/m N 0,0 km/h (0 Bft)
27.12.2005 13:00 -2,2 C 88 % 1003 hPa 0,0 l/m N 0,0 km/h (0 Bft)
27.12.2005 14:00 -2,4 C 87 % 1002 hPa 0,0 l/m N 0,0 km/h (0 Bft)
27.12.2005 15:00 -2,4 C 88 % 1002 hPa 0,0 l/m N 0,0 km/h (0 Bft)
27.12.2005 16:00 -2,6 C 90 % 1003 hPa 0,0 l/m N 0,0 km/h (0 Bft)
27.12.2005 17:00 -2,8 C 92 % 1003 hPa 0,0 l/m N 0,0 km/h (0 Bft)
27.12.2005 18:00 -2,9 C 93 % 1003 hPa 0,0 l/m N 0,0 km/h (0 Bft)
27.12.2005 19:00 -2,9 C 94 % 1003 hPa 0,0 l/m N 0,0 km/h (0 Bft)
27.12.2005 20:00 -3,0 C 95 % 1003 hPa 0,0 l/m N 0,0 km/h (0 Bft)
27.12.2005 21:00 -3,3 C 95 % 1003 hPa 0,0 l/m N 0,0 km/h (0 Bft)
27.12.2005 22:00 -3,7 C 95 % 1003 hPa 0,0 l/m N 0,0 km/h (0 Bft)
27.12.2005 23:00 -3,5 C 95 % 1004 hPa 0,0 l/m N 0,0 km/h (0 Bft)
28.12.2005 00:00 -3,5 C 93 % 1004 hPa 0,0 l/m N 0,0 km/h (0 Bft)
28.12.2005 01:00 -3,8 C 92 % 1004 hPa 0,0 l/m N 0,0 km/h (0 Bft)
28.12.2005 02:00 -4,3 C 90 % 1004 hPa 0,0 l/m N 0,0 km/h (0 Bft)
28.12.2005 03:00 -4,6 C 90 % 1004 hPa 0,0 l/m N 0,0 km/h (0 Bft)
28.12.2005 04:00 -5,3 C 86 % 1004 hPa 0,0 l/m N 0,0 km/h (0 Bft)
28.12.2005 05:00 -5,9 C 82 % 1004 hPa 0,0 l/m N 0,0 km/h (0 Bft)
28.12.2005 06:00 -6,3 C 82 % 1004 hPa 0,0 l/m N 0,0 km/h (0 Bft)
28.12.2005 07:00 -6,5 C 84 % 1004 hPa 0,0 l/m N 0,0 km/h (0 Bft)
28.12.2005 08:00 -6,5 C 87 % 1004 hPa 0,0 l/m N 0,0 km/h (0 Bft)
28.12.2005 09:00 -6,1 C 87 % 1005 hPa 0,0 l/m N 0,0 km/h (0 Bft)
28.12.2005 10:00 -5,9 C 83 % 1005 hPa 0,0 l/m N 0,0 km/h (0 Bft)
28.12.2005 11:00 -5,9 C 83 % 1005 hPa 0,0 l/m N 0,0 km/h (0 Bft)
28.12.2005 12:00 -5,5 C 82 % 1005 hPa 0,0 l/m N 0,0 km/h (0 Bft)
28.12.2005 13:00 -5,2 C 80 % 1005 hPa 0,0 l/m N 0,0 km/h (0 Bft)
28.12.2005 14:00 -5,1 C 77 % 1005 hPa 0,0 l/m N 0,0 km/h (0 Bft)
28.12.2005 15:00 -5,6 C 78 % 1005 hPa 0,0 l/m N 0,0 km/h (0 Bft)
28.12.2005 16:00 -6,0 C 82 % 1006 hPa 0,0 l/m N 0,0 km/h (0 Bft)
28.12.2005 17:00 -6,1 C 84 % 1006 hPa 0,0 l/m N 0,0 km/h (0 Bft)
28.12.2005 18:00 -6,2 C 85 % 1007 hPa 0,0 l/m N 0,0 km/h (0 Bft)
28.12.2005 19:00 -6,4 C 84 % 1007 hPa 0,0 l/m N 0,0 km/h (0 Bft)
28.12.2005 20:00 -6,5 C 84 % 1008 hPa 0,0 l/m N 0,0 km/h (0 Bft)
28.12.2005 21:00 -6,5 C 84 % 1008 hPa 0,0 l/m N 0,0 km/h (0 Bft)
28.12.2005 22:00 -6,6 C 84 % 1009 hPa 0,0 l/m N 0,0 km/h (0 Bft)
28.12.2005 23:00 -6,7 C 85 % 1009 hPa 0,0 l/m N 0,0 km/h (0 Bft)
29.12.2005 00:00 -6,8 C 84 % 1009 hPa 0,0 l/m N 0,0 km/h (0 Bft)
29.12.2005 01:00 -6,8 C 83 % 1009 hPa 0,0 l/m N 0,0 km/h (0 Bft)
29.12.2005 02:00 -6,9 C 82 % 1010 hPa 0,0 l/m N 0,0 km/h (0 Bft)
29.12.2005 03:00 -6,9 C 82 % 1010 hPa 0,0 l/m N 0,0 km/h (0 Bft)
29.12.2005 04:00 -6,9 C 85 % 1010 hPa 0,0 l/m N 0,0 km/h (0 Bft)
29.12.2005 05:00 -7,0 C 85 % 1011 hPa 0,0 l/m N 0,0 km/h (0 Bft)
29.12.2005 06:00 -7,1 C 85 % 1011 hPa 0,0 l/m N 0,0 km/h (0 Bft)
29.12.2005 07:00 -7,3 C 84 % 1012 hPa 0,0 l/m N 0,0 km/h (0 Bft)
29.12.2005 08:00 -7,4 C 85 % 1012 hPa 0,0 l/m N 0,0 km/h (0 Bft)
29.12.2005 09:00 -7,2 C 84 % 1013 hPa 0,0 l/m N 0,0 km/h (0 Bft)
29.12.2005 10:00 -6,5 C 80 % 1014 hPa 0,0 l/m N 0,0 km/h (0 Bft)
29.12.2005 11:00 -5,8 C 76 % 1014 hPa 0,0 l/m N 0,0 km/h (0 Bft)
29.12.2005 12:00 -4,9 C 72 % 1014 hPa 0,0 l/m N 0,0 km/h (0 Bft)
29.12.2005 13:00 -4,8 C 71 % 1014 hPa 0,0 l/m N 0,0 km/h (0 Bft)
29.12.2005 14:00 -4,9 C 69 % 1015 hPa 0,0 l/m N 0,0 km/h (0 Bft)
29.12.2005 15:00 -5,5 C 74 % 1015 hPa 0,0 l/m N 0,0 km/h (0 Bft)
29.12.2005 16:00 -6,7 C 78 % 1015 hPa 0,0 l/m N 0,0 km/h (0 Bft)
29.12.2005 17:00 -7,9 C 80 % 1016 hPa 0,0 l/m N 0,0 km/h (0 Bft)
29.12.2005 18:00 -9,1 C 81 % 1016 hPa 0,0 l/m N 0,0 km/h (0 Bft)
29.12.2005 19:00 -9,6 C 83 % 1016 hPa 0,0 l/m N 0,0 km/h (0 Bft)
29.12.2005 20:00 -9,9 C 85 % 1017 hPa 0,0 l/m N 0,0 km/h (0 Bft)
29.12.2005 21:00 -10,2 C 88 % 1017 hPa 0,0 l/m N 0,0 km/h (0 Bft)
29.12.2005 22:00 -11,3 C 88 % 1017 hPa 0,0 l/m N 0,0 km/h (0 Bft)
29.12.2005 23:00 -12,5 C 88 % 1016 hPa 0,0 l/m N 0,0 km/h (0 Bft)
30.12.2005 00:00 -13,2 C 88 % 1016 hPa 0,0 l/m N 0,0 km/h (0 Bft)
30.12.2005 01:00 -13,9 C 88 % 1016 hPa 0,0 l/m N 0,0 km/h (0 Bft)
30.12.2005 02:00 -14,5 C 88 % 1017 hPa 0,0 l/m N 0,0 km/h (0 Bft)
30.12.2005 03:00 -14,9 C 88 % 1017 hPa 0,0 l/m N 0,0 km/h (0 Bft)
30.12.2005 04:00 -15,8 C 88 % 1017 hPa 0,0 l/m N 0,0 km/h (0 Bft)
30.12.2005 05:00 -15,8 C 88 % 1017 hPa 0,0 l/m N 0,0 km/h (0 Bft)
30.12.2005 06:00 -16,4 C 88 % 1017 hPa 0,0 l/m N 0,0 km/h (0 Bft)
30.12.2005 07:00 -16,8 C 88 % 1018 hPa 0,0 l/m N 0,0 km/h (0 Bft)
30.12.2005 08:00 -16,7 C 88 % 1018 hPa 0,0 l/m N 0,0 km/h (0 Bft)
30.12.2005 09:00 -15,8 C 88 % 1018 hPa 0,0 l/m N 0,0 km/h (0 Bft)
30.12.2005 10:00 -13,6 C 88 % 1018 hPa 0,0 l/m N 0,0 km/h (0 Bft)
30.12.2005 11:00 -12,0 C 88 % 1018 hPa 0,0 l/m N 0,0 km/h (0 Bft)
30.12.2005 12:00 -8,9 C 80 % 1017 hPa 0,0 l/m N 0,0 km/h (0 Bft)
30.12.2005 13:00 -5,7 C 63 % 1016 hPa 0,0 l/m N 0,0 km/h (0 Bft)
30.12.2005 14:00 -5,1 C 58 % 1016 hPa 0,0 l/m N 0,0 km/h (0 Bft)
30.12.2005 15:00 -6,2 C 61 % 1015 hPa 0,0 l/m N 0,0 km/h (0 Bft)
30.12.2005 16:00 -9,0 C 64 % 1015 hPa 0,0 l/m N 0,0 km/h (0 Bft)
30.12.2005 17:00 -11,3 C 65 % 1014 hPa 0,0 l/m N 0,0 km/h (0 Bft)
30.12.2005 18:00 -12,0 C 65 % 1013 hPa 0,0 l/m N 0,0 km/h (0 Bft)
30.12.2005 19:00 -11,8 C 65 % 1012 hPa 0,0 l/m N 0,0 km/h (0 Bft)
30.12.2005 20:00 -11,4 C 65 % 1011 hPa 0,0 l/m N 0,0 km/h (0 Bft)
30.12.2005 21:00 -10,4 C 65 % 1011 hPa 0,0 l/m N 0,0 km/h (0 Bft)
30.12.2005 22:00 -10,3 C 65 % 1010 hPa 0,0 l/m N 0,0 km/h (0 Bft)
30.12.2005 23:00 -9,6 C 83 % 1009 hPa 0,0 l/m N 0,0 km/h (0 Bft)
31.12.2005 00:00 -8,5 C 88 % 1008 hPa 0,0 l/m N 0,0 km/h (0 Bft)
31.12.2005 01:00 -7,6 C 91 % 1007 hPa 0,0 l/m N 0,0 km/h (0 Bft)
31.12.2005 02:00 -5,2 C 96 % 1006 hPa 0,0 l/m N 0,0 km/h (0 Bft)
31.12.2005 03:00 -2,4 C 99 % 1006 hPa 0,0 l/m N 0,0 km/h (0 Bft)
31.12.2005 04:00 -1,5 C 99 % 1007 hPa 0,0 l/m N 0,0 km/h (0 Bft)
31.12.2005 05:00 -0,4 C 100 % 1007 hPa 0,0 l/m N 0,0 km/h (0 Bft)
31.12.2005 06:00 2,0 C 100 % 1007 hPa 0,0 l/m SW 15,6 km/h (3 Bft)
31.12.2005 07:00 3,0 C 100 % 1008 hPa 0,0 l/m S-SW 18,7 km/h (3 Bft)
31.12.2005 08:00 2,8 C 100 % 1008 hPa 0,0 l/m S-SW 14,4 km/h (3 Bft)
31.12.2005 09:00 1,9 C 100 % 1008 hPa 0,0 l/m S-SW 13,8 km/h (3 Bft)
31.12.2005 10:00 2,6 C 100 % 1008 hPa 0,0 l/m S 18,5 km/h (3 Bft)
31.12.2005 11:00 4,2 C 97 % 1007 hPa 0,0 l/m S-SW 19,6 km/h (3 Bft)
31.12.2005 12:00 5,6 C 83 % 1007 hPa 0,0 l/m S-SW 21,7 km/h (4 Bft)
31.12.2005 13:00 5,7 C 78 % 1005 hPa 0,0 l/m S-SW 20,7 km/h (4 Bft)
31.12.2005 14:00 5,4 C 78 % 1005 hPa 0,0 l/m S-SW 18,3 km/h (3 Bft)
31.12.2005 15:00 4,6 C 82 % 1005 hPa 0,0 l/m S-SW 16,5 km/h (3 Bft)
31.12.2005 16:00 3,9 C 91 % 1005 hPa 0,0 l/m S-SW 16,5 km/h (3 Bft)
31.12.2005 17:00 3,4 C 94 % 1005 hPa 0,0 l/m SW 15,5 km/h (3 Bft)
31.12.2005 18:00 2,5 C 97 % 1005 hPa 0,0 l/m S-SW 17,6 km/h (3 Bft)
31.12.2005 19:00 2,5 C 100 % 1004 hPa 0,0 l/m S-SW 15,3 km/h (3 Bft)
31.12.2005 20:00 2,7 C 100 % 1005 hPa 0,0 l/m S-SW 15,2 km/h (3 Bft)
31.12.2005 21:00 2,2 C 100 % 1006 hPa 0,0 l/m S-SW 17,4 km/h (3 Bft)
31.12.2005 22:00 1,9 C 100 % 1005 hPa 0,0 l/m S 18,4 km/h (3 Bft)
31.12.2005 23:00 1,8 C 100 % 1005 hPa 0,0 l/m S-SW 15,4 km/h (3 Bft)
01.01.2006 00:00 1,9 C 100 % 1005 hPa 0,0 l/m S 19,7 km/h (3 Bft)
Min-Datum _ 30.12.05 30.12.05 27.12.05 - - 26.12.05
_ Min-Zeit 07:50 14:34 14:01 - - 00:00
Minimum _ -17,0 C 57 % 1002 hPa - - 0,0 km/h (0 Bft)
Max-Datum _ 31.12.05 26.12.05 30.12.05 26.12.05 - 31.12.05
_ Max-Zeit 13:15 00:00 07:47 00:00 - 12:02
Maximum _ 5,9 C 100 % 1018 hPa 0,0 l/m - 38,3 km/h
S-SW (5 Bft)
Durchschnitt _ -4,6 C 88 % 1009 hPa #0,0 l/m S-SW 2,4 km/h (1 Bft)

Durchschnitt Minimum Temp.-4,9 C
Durchschnitt Maximum Temp.-4,3 C